Location: Cuiry
(49.3858°N, 3.7708°E)
Time: 16:15:24
(UTC+00:00)

PSLV R/B - Pass Details

Date: 12 April 2026
Orbit: 560 x 585 km, 98.0° (Epoch: 14 May)

Event Time Altitude Azimuth Distance (km) Brightness Sun altitude
Rises 19:03:48 0° 183° (S) 2,757 6.7 -5.6°
Reaches altitude 10° 19:06:01 10° 191° (S) 1,869 5.9 -5.9°
Maximum altitude 19:09:50 40° 262° (W) 854 4.9 -6.5°
Drops below altitude 10° 19:13:44 10° 333° (NNW) 1,900 6.9 -7.1°
Sets 19:16:00 0° 340° (NNW) 2,808 7.6 -7.4°
